Weather History for Provo, UT

Change the Weather History Date:

Thursday, September 15, 2011

  Actual Average Record
Temperature  
Mean Temperature 63 °F -  
Max Temperature 75 °F 74 °F 95 °F (2000)
Min Temperature 51 °F 47 °F 37 °F (2004)
Degree Days  
Heating Degree Days 2    
Growing Degree Days 13 (Base 50)    
Moisture  
Dew Point 47 °F    
Average Humidity 60    
Maximum Humidity 82    
Minimum Humidity 31    
Precipitation  
Precipitation 0.00 in - - ()
Sea Level Pressure  
Sea Level Pressure 30.01 in    
Wind  
Wind Speed 7 mph (SE)    
Max Wind Speed 14 mph    
Max Gust Speed 22 mph    
Visibility 12 miles    
Events      
Averages and records for this station are not official NWS values.
T = Trace of Precipitation, MM = Missing Value Source: NWS Daily Summary

Daily Weather History Graph

Daily Weather History Graph

Search for Another Location

Airport:

Trip Planner

Search our weather history database for the weather conditions in past years. The results will help you decide how hot, cold, wet, or windy it might be!

Date:

Astronomy

Sep. 15, 2011 Rise Set
Actual Time 7:07 AM MDT 7:36 PM MDT
Civil Twilight 6:40 AM MDT 8:03 PM MDT
Nautical Twilight 6:08 AM MDT 8:35 PM MDT
Astronomical Twilight 5:35 AM MDT 9:08 PM MDT
Moon 8:53 PM MDT (9/15) 10:19 AM MDT (9/15)
Length of Visible Light 13h 22m
Length of Day
12h 28m
Waning Gibbous, 90% of the Moon is Illuminated
Sep 15
Waning Gibbous
Sep 20
Last Quarter
Sep 27
New
Oct 3
First Quarter
Oct 11
Full

Hourly Weather History & Observations

Time (MDT) Temp. Dew Point Humidity Pressure Visibility Wind Dir Wind Speed Gust Speed Precip Events Conditions
12:15 AM 60.8 °F 48.2 °F 63% 30.02 in 10.0 mi SE 11.5 mph 17.3 mph N/A   Clear
12:35 AM 60.8 °F 48.2 °F 63% 30.03 in 10.0 mi SSE 13.8 mph 21.9 mph N/A   Mostly Cloudy
12:55 AM 60.8 °F 48.2 °F 63% 30.03 in 10.0 mi SE 10.4 mph - N/A   Mostly Cloudy
1:15 AM 59.0 °F 48.2 °F 67% 30.04 in 10.0 mi SSE 9.2 mph - N/A   Clear
1:35 AM 57.2 °F 48.2 °F 72% 30.05 in 10.0 mi SSE 8.1 mph - N/A   Clear
1:55 AM 59.0 °F 48.2 °F 67% 30.04 in 10.0 mi SSE 9.2 mph - N/A   Clear
2:15 AM 57.2 °F 48.2 °F 72% 30.04 in 10.0 mi SSE 8.1 mph - N/A   Mostly Cloudy
2:35 AM 59.0 °F 48.2 °F 67% 30.05 in 10.0 mi SSE 9.2 mph - N/A   Mostly Cloudy
2:55 AM 57.2 °F 46.4 °F 67% 30.04 in 10.0 mi SSE 10.4 mph - N/A   Partly Cloudy
3:15 AM 57.2 °F 46.4 °F 67% 30.04 in 10.0 mi SE 3.5 mph - N/A   Clear
3:35 AM 57.2 °F 48.2 °F 72% 30.05 in 10.0 mi Calm Calm - N/A   Clear
3:55 AM 55.4 °F 48.2 °F 77% 30.05 in 10.0 mi Calm Calm - N/A   Clear
4:15 AM 51.8 °F 46.4 °F 82% 30.04 in 10.0 mi Calm Calm - N/A   Clear
4:35 AM 53.6 °F 46.4 °F 77% 30.05 in 10.0 mi ESE 3.5 mph - N/A   Clear
5:15 AM 57.2 °F 46.4 °F 67% 30.04 in 10.0 mi SE 4.6 mph - N/A   Clear
5:35 AM 55.4 °F 46.4 °F 72% 30.04 in 10.0 mi SE 5.8 mph - N/A   Clear
5:55 AM 53.6 °F 44.6 °F 72% 30.05 in 10.0 mi NE 3.5 mph - N/A   Clear
6:35 AM 51.8 °F 44.6 °F 76% 30.05 in 10.0 mi Calm Calm - N/A   Partly Cloudy
6:50 AM 53.6 °F 46.4 °F 77% 30.05 in 15.0 mi Calm Calm - N/A   Partly Cloudy
8:50 AM 60.8 °F 46.4 °F 59% 30.07 in 15.0 mi Variable 5.8 mph - N/A   Partly Cloudy
10:50 AM 66.2 °F 48.2 °F 52% 30.08 in 15.0 mi Variable 5.8 mph - N/A   Partly Cloudy
11:47 AM 69.8 °F 48.2 °F 46% 30.07 in 15.0 mi Calm Calm - N/A   Partly Cloudy
12:47 PM 69.8 °F 48.2 °F 46% 30.05 in 15.0 mi Variable 4.6 mph - N/A   Partly Cloudy
1:58 PM 73.4 °F 46.4 °F 38% 30.02 in 15.0 mi Variable 4.6 mph - N/A   Scattered Clouds
2:55 PM 73.4 °F 44.6 °F 36% 29.99 in 15.0 mi Variable 4.6 mph - N/A   Scattered Clouds
3:50 PM 75.2 °F 42.8 °F 31% 29.97 in 15.0 mi Variable 5.8 mph - N/A   Scattered Clouds
5:55 PM 73.4 °F 48.2 °F 41% 29.94 in 15.0 mi Variable 5.8 mph - N/A   Scattered Clouds
6:47 PM 71.6 °F 44.6 °F 38% 29.93 in 15.0 mi Variable 4.6 mph - N/A   Scattered Clouds
7:47 PM 66.2 °F 48.2 °F 52% 29.93 in 15.0 mi Variable 4.6 mph - N/A   Scattered Clouds
8:47 PM 64.4 °F 51.8 °F 64% 29.94 in 15.0 mi Variable 3.5 mph - N/A   Scattered Clouds
9:15 PM 62.6 °F 50.0 °F 63% 29.95 in 10.0 mi SSE 6.9 mph - N/A   Clear
9:35 PM 62.6 °F 48.2 °F 59% 29.95 in 10.0 mi SSE 11.5 mph - N/A   Clear
9:55 PM 64.4 °F 48.2 °F 56% 29.96 in 10.0 mi ESE 9.2 mph - N/A   Clear
10:15 PM 64.4 °F 48.2 °F 56% 29.96 in 10.0 mi East 9.2 mph - N/A   Clear
10:35 PM 62.6 °F 46.4 °F 55% 29.96 in 10.0 mi ESE 8.1 mph - N/A   Clear
10:55 PM 64.4 °F 46.4 °F 52% 29.96 in 10.0 mi ESE 5.8 mph - N/A   Clear
11:15 PM 64.4 °F 46.4 °F 52% 29.96 in 10.0 mi SE 12.7 mph - N/A   Clear
11:35 PM 64.4 °F 46.4 °F 52% 29.96 in 10.0 mi SE 9.2 mph 16.1 mph N/A   Clear
11:55 PM 62.6 °F 48.2 °F 59% 29.96 in 10.0 mi SE 10.4 mph - N/A   Clear